Retour au catalogue

FENGYUN 1C DEB

ActifPO
NORAD 31360·DEBRIS·🇨🇳 China

Lancé May 10, 1999 depuis Taiyuan Satellite Launch Center

Loading…

Prochains Passages (prochaines 24 heures)

TLE

VieillissantSource: Space-Track

Époque: Sep 4, 2026, 19:12 UTC

1 31360U 99025BRQ 26247.80005440  .00002304  00000-0  11498-2 0  9994
2 31360  97.9847  83.1521 0100256 174.3383 185.8952 14.15091094669599

Suivez FENGYUN 1C DEB en temps réel avec AllMySat

Download on the App Store